Location: Geyikbay?r?
(36.8756°N, 30.4583°E)
Time: 07:48:57
(UTC+00:00)

IDEFIX/ARIANE 42P - Pass Details

Date: 05 August 2024
Orbit: 782 x 799 km, 98.5° (Epoch: 10 September)

Event Time Altitude Azimuth Distance (km) Brightness Sun altitude
Rises 23:39:36 0° 12° (NNE) 3,276 6.8 -32.0°
Reaches altitude 10° 23:41:55 10° 13° (NNE) 2,345 5.8 -31.7°
Enters shadow 23:45:49 53° 12° (NNE) 965 3.2 -31.4°
